• In Spain
  • List of Countries
  • For 7 days
  • Water Temperature
  • Satellite Maps
  • Weather Map
  • Weather Widgets
  • user-avatar
    Login

    Hourly Weather Ischgl

    Today, 24 August, Thursday

    Time Temperature Precipitation Wind Pressure Humidity
    00:00 +7°C° 0 mm 1 mps 578 mmHg 70%
    01:00 +7°C° 0 mm 1 mps 578 mmHg 68%
    02:00 +7°C° 0 mm 1 mps 578 mmHg 68%
    03:00 +7°C° 0 mm 1 mps 578 mmHg 68%
    04:00 +6°C° 0 mm 1 mps 577 mmHg 68%
    05:00 +8°C° 0 mm 1 mps 578 mmHg 67%
    06:00 +9°C° 0 mm 1 mps 579 mmHg 66%
    07:00 +10°C° 0 mm 1 mps 580 mmHg 65%
    08:00 +13°C° 0 mm 1 mps 581 mmHg 57%
    09:00 +15°C° 0 mm 1 mps 582 mmHg 49%
    10:00 +18°C° 0 mm 1 mps 583 mmHg 41%
    11:00 +19°C° 0.1 mm 1 mps 583 mmHg 40%
    12:00 +19°C° 0.1 mm 1 mps 584 mmHg 39%
    13:00 +20°C° 0.1 mm 1 mps 584 mmHg 38%
    14:00 +19°C° 0.4 mm 1 mps 583 mmHg 44%
    15:00 +18°C° 0.4 mm 1 mps 583 mmHg 50%
    16:00 +16°C° 0.4 mm 2 mps 582 mmHg 56%
    17:00 +14°C° 0.6 mm 1 mps 582 mmHg 64%
    18:00 +13°C° 0.6 mm 1 mps 581 mmHg 72%
    19:00 +11°C° 0.6 mm 1 mps 580 mmHg 80%
    20:00 +10°C° 0.1 mm 1 mps 580 mmHg 81%
    21:00 +10°C° 0.1 mm 1 mps 580 mmHg 82%
    22:00 +8°C° 0.1 mm 2 mps 580 mmHg 83%
    23:00 +8°C° 0.1 mm 2 mps 580 mmHg 83%

    Tomorrow, 25 August, Friday

    Time Temperature Precipitation Wind Pressure Humidity
    00:00 +8°C° 0.1 mm 2 mps 580 mmHg 83%
    01:00 +8°C° 0.1 mm 2 mps 580 mmHg 83%
    02:00 +7°C° 0 mm 2 mps 580 mmHg 82%
    03:00 +7°C° 0 mm 2 mps 579 mmHg 82%
    04:00 +7°C° 0 mm 2 mps 579 mmHg 81%
    05:00 +7°C° 0 mm 2 mps 580 mmHg 79%
    06:00 +8°C° 0 mm 2 mps 580 mmHg 76%
    07:00 +10°C° 0 mm 1 mps 580 mmHg 74%
    08:00 +12°C° 0 mm 1 mps 581 mmHg 65%
    09:00 +14°C° 0 mm 1 mps 582 mmHg 57%
    10:00 +18°C° 0 mm 1 mps 583 mmHg 48%
    11:00 +18°C° 0.1 mm 1 mps 584 mmHg 46%
    12:00 +19°C° 0.1 mm 1 mps 584 mmHg 44%
    13:00 +20°C° 0.1 mm 1 mps 584 mmHg 42%
    14:00 +20°C° 0.3 mm 1 mps 584 mmHg 45%
    15:00 +19°C° 0.3 mm 1 mps 583 mmHg 48%
    16:00 +17°C° 0.3 mm 2 mps 583 mmHg 51%
    17:00 +16°C° 0.7 mm 1 mps 582 mmHg 61%
    18:00 +14°C° 0.7 mm 1 mps 581 mmHg 70%
    19:00 +12°C° 0.7 mm 1 mps 581 mmHg 79%
    20:00 +12°C° 0.5 mm 1 mps 581 mmHg 79%
    21:00 +11°C° 0.5 mm 1 mps 581 mmHg 79%
    22:00 +11°C° 0.5 mm 1 mps 581 mmHg 79%
    23:00 +10°C° 0.1 mm 1 mps 580 mmHg 79%

    Day after tomorrow, 26 August, Saturday

    Time Temperature Precipitation Wind Pressure Humidity
    00:00 +10°C° 0.1 mm 1 mps 580 mmHg 78%
    01:00 +9°C° 0.1 mm 1 mps 580 mmHg 78%
    02:00 +9°C° 0 mm 1 mps 579 mmHg 77%
    03:00 +9°C° 0 mm 1 mps 579 mmHg 76%
    04:00 +9°C° 0 mm 1 mps 579 mmHg 76%
    05:00 +10°C° 0 mm 1 mps 580 mmHg 74%
    06:00 +11°C° 0 mm 1 mps 580 mmHg 72%
    07:00 +12°C° 0 mm 1 mps 581 mmHg 71%
    08:00 +14°C° 0 mm 1 mps 582 mmHg 63%
    09:00 +16°C° 0 mm 1 mps 583 mmHg 55%
    10:00 +19°C° 0 mm 1 mps 584 mmHg 47%
    11:00 +19°C° 0.3 mm 1 mps 584 mmHg 45%
    12:00 +20°C° 0.3 mm 1 mps 584 mmHg 44%
    13:00 +20°C° 0.3 mm 1 mps 584 mmHg 42%
    14:00 +20°C° 0.6 mm 1 mps 583 mmHg 46%
    15:00 +19°C° 0.6 mm 1 mps 583 mmHg 49%
    16:00 +18°C° 0.6 mm 1 mps 582 mmHg 53%
    17:00 +16°C° 1 mm 1 mps 581 mmHg 61%
    18:00 +14°C° 1 mm 1 mps 581 mmHg 70%
    19:00 +11°C° 1 mm 0 mps 580 mmHg 78%
    20:00 +12°C° 0.3 mm 1 mps 580 mmHg 78%
    21:00 +11°C° 0.3 mm 1 mps 580 mmHg 78%
    22:00 +10°C° 0.3 mm 1 mps 580 mmHg 77%
    23:00 +10°C° 0.1 mm 1 mps 579 mmHg 77%

    27 August, Sunday

    Time Temperature Precipitation Wind Pressure Humidity
    00:00 +10°C° 0.1 mm 1 mps 579 mmHg 76%
    01:00 +9°C° 0.1 mm 1 mps 579 mmHg 76%
    02:00 +9°C° 0 mm 1 mps 579 mmHg 76%
    03:00 +9°C° 0 mm 1 mps 579 mmHg 75%
    04:00 +9°C° 0 mm 1 mps 578 mmHg 75%
    05:00 +10°C° 0 mm 1 mps 579 mmHg 74%
    06:00 +11°C° 0 mm 1 mps 580 mmHg 73%
    07:00 +12°C° 0 mm 1 mps 580 mmHg 71%
    08:00 +14°C° 0 mm 1 mps 581 mmHg 62%
    09:00 +16°C° 0 mm 1 mps 582 mmHg 54%
    10:00 +19°C° 0 mm 1 mps 583 mmHg 45%
    11:00 +20°C° 0 mm 1 mps 583 mmHg 43%
    12:00 +21°C° 0 mm 1 mps 583 mmHg 42%
    13:00 +21°C° 0 mm 1 mps 583 mmHg 40%
    14:00 +21°C° 0.2 mm 1 mps 583 mmHg 44%
    15:00 +20°C° 0.2 mm 1 mps 582 mmHg 47%
    16:00 +19°C° 0.2 mm 1 mps 582 mmHg 51%
    17:00 +16°C° 0.9 mm 1 mps 581 mmHg 61%
    18:00 +14°C° 0.9 mm 1 mps 580 mmHg 72%
    19:00 +12°C° 0.9 mm 1 mps 579 mmHg 82%
    20:00 +11°C° 0.8 mm 1 mps 579 mmHg 83%
    21:00 +11°C° 0.8 mm 1 mps 579 mmHg 83%
    22:00 +10°C° 0.8 mm 1 mps 579 mmHg 84%
    23:00 +9°C° 0.1 mm 1 mps 579 mmHg 84%

    28 August, Monday

    Time Temperature Precipitation Wind Pressure Humidity
    00:00 +9°C° 0.1 mm 1 mps 579 mmHg 84%
    01:00 +8°C° 0.1 mm 1 mps 579 mmHg 84%
    02:00 +8°C° 0 mm 1 mps 578 mmHg 84%
    03:00 +8°C° 0 mm 1 mps 578 mmHg 84%
    04:00 +8°C° 0 mm 1 mps 578 mmHg 85%
    05:00 +9°C° 0 mm 1 mps 579 mmHg 84%
    06:00 +9°C° 0 mm 1 mps 579 mmHg 84%
    07:00 +10°C° 0 mm 1 mps 580 mmHg 83%
    08:00 +12°C° 0 mm 2 mps 581 mmHg 75%
    09:00 +14°C° 0 mm 2 mps 582 mmHg 67%
    10:00 +16°C° 0 mm 2 mps 582 mmHg 59%
    11:00 +17°C° 0.1 mm 2 mps 583 mmHg 55%
    12:00 +17°C° 0.1 mm 2 mps 583 mmHg 52%
    13:00 +18°C° 0.1 mm 2 mps 583 mmHg 48%
    14:00 +18°C° 0.1 mm 2 mps 583 mmHg 50%
    15:00 +18°C° 0.1 mm 2 mps 583 mmHg 51%
    16:00 +17°C° 0.1 mm 2 mps 582 mmHg 53%
    17:00 +15°C° 0.1 mm 2 mps 581 mmHg 63%
    18:00 +13°C° 0.1 mm 1 mps 581 mmHg 74%
    19:00 +11°C° 0.1 mm 1 mps 580 mmHg 84%
    20:00 +10°C° 0 mm 1 mps 580 mmHg 87%
    21:00 +9°C° 0 mm 1 mps 579 mmHg 90%
    22:00 +9°C° 0 mm 1 mps 579 mmHg 92%
    23:00 +8°C° 0 mm 1 mps 579 mmHg 92%

    29 August, Tuesday

    Time Temperature Precipitation Wind Pressure Humidity
    00:00 +8°C° 0 mm 1 mps 579 mmHg 92%
    01:00 +8°C° 0 mm 1 mps 578 mmHg 91%
    02:00 +8°C° 0 mm 1 mps 578 mmHg 90%
    03:00 +7°C° 0 mm 1 mps 578 mmHg 89%
    04:00 +7°C° 0 mm 1 mps 578 mmHg 87%
    05:00 +8°C° 0 mm 1 mps 578 mmHg 84%
    06:00 +9°C° 0 mm 1 mps 579 mmHg 81%
    07:00 +10°C° 0 mm 1 mps 579 mmHg 78%
    08:00 +13°C° 0 mm 1 mps 580 mmHg 68%
    09:00 +15°C° 0 mm 1 mps 581 mmHg 58%
    10:00 +18°C° 0 mm 1 mps 582 mmHg 48%
    11:00 +19°C° 0 mm 1 mps 583 mmHg 45%
    12:00 +20°C° 0 mm 1 mps 583 mmHg 43%
    13:00 +21°C° 0 mm 1 mps 583 mmHg 40%
    14:00 +20°C° 0 mm 1 mps 583 mmHg 41%
    15:00 +19°C° 0 mm 2 mps 582 mmHg 43%
    16:00 +19°C° 0 mm 2 mps 582 mmHg 45%
    17:00 +16°C° 0.1 mm 1 mps 581 mmHg 56%
    18:00 +14°C° 0.1 mm 1 mps 580 mmHg 68%
    19:00 +12°C° 0.1 mm 1 mps 579 mmHg 79%
    20:00 +11°C° 0.1 mm 1 mps 579 mmHg 79%
    21:00 +11°C° 0.1 mm 1 mps 579 mmHg 80%
    22:00 +10°C° 0.1 mm 1 mps 579 mmHg 80%
    23:00 +9°C° 0 mm 2 mps 579 mmHg 81%
    Show more